TimePDT,TemperatureF,Dew PointF,Humidity,Sea Level PressureIn,VisibilityMPH,Wind Direction,Wind SpeedMPH,Gust SpeedMPH,PrecipitationIn,Events,Conditions,WindDirDegrees,DateUTC
12:58 AM,49.3,48.9,99,30.18,10.0,South,12.7,-,N/A,,Overcast,170,2013-03-12 07:58:00
1:03 AM,50.0,50.0,100,30.16,10.0,South,12.7,-,N/A,,Overcast,170,2013-03-12 08:03:00
1:53 AM,50.0,50.0,100,30.16,10.0,SSE,11.5,-,N/A,,Overcast,160,2013-03-12 08:53:00
1:58 AM,49.5,49.3,99,30.17,10.0,SSE,11.5,-,N/A,,Overcast,160,2013-03-12 08:58:00
2:11 AM,50.0,50.0,100,30.15,10.0,South,10.4,-,N/A,,Light Drizzle,170,2013-03-12 09:11:00
2:20 AM,50.0,50.0,100,30.15,10.0,South,11.5,-,N/A,,Mostly Cloudy,170,2013-03-12 09:20:00
2:30 AM,50.0,50.0,100,30.16,10.0,South,10.4,-,N/A,,Overcast,170,2013-03-12 09:30:00
2:40 AM,50.0,50.0,100,30.16,10.0,South,12.7,-,N/A,,Mostly Cloudy,170,2013-03-12 09:40:00
2:58 AM,50.2,49.5,97,30.18,10.0,South,10.4,-,0.00,,Overcast,180,2013-03-12 09:58:00
3:48 AM,50.0,50.0,100,30.14,10.0,South,10.4,-,N/A,,Overcast,170,2013-03-12 10:48:00
3:58 AM,50.0,49.5,98,30.16,10.0,SSE,12.7,-,N/A,,Overcast,160,2013-03-12 10:58:00
4:33 AM,50.0,50.0,100,30.13,10.0,SSE,10.4,-,N/A,,Overcast,160,2013-03-12 11:33:00
4:53 AM,50.0,50.0,100,30.12,10.0,SSE,12.7,-,N/A,,Overcast,160,2013-03-12 11:53:00
4:58 AM,50.0,49.8,99,30.14,10.0,SSE,13.8,-,N/A,,Overcast,160,2013-03-12 11:58:00
5:28 AM,50.0,50.0,100,30.12,10.0,SSE,11.5,-,N/A,,Overcast,150,2013-03-12 12:28:00
5:58 AM,49.8,49.6,99,30.14,10.0,SSE,10.4,-,0.01,,Overcast,160,2013-03-12 12:58:00
6:58 AM,50.2,49.1,96,30.13,10.0,SSE,11.5,-,N/A,,Overcast,160,2013-03-12 13:58:00
7:58 AM,50.4,48.7,94,30.13,10.0,South,8.1,-,N/A,,Overcast,180,2013-03-12 14:58:00
8:58 AM,50.9,48.4,91,30.13,10.0,SSE,12.7,-,N/A,,Overcast,160,2013-03-12 15:58:00
9:58 AM,51.6,48.4,89,30.14,10.0,SSE,11.5,-,N/A,,Overcast,160,2013-03-12 16:58:00
10:58 AM,53.1,47.1,80,30.13,10.0,SSE,15.0,-,N/A,,Overcast,160,2013-03-12 17:58:00
11:58 AM,54.7,46.6,74,30.13,10.0,SSE,17.3,24.2,N/A,,Mostly Cloudy,160,2013-03-12 18:58:00
12:40 PM,53.6,46.4,77,30.12,10.0,SSE,12.7,-,N/A,,Light Drizzle,160,2013-03-12 19:40:00
12:50 PM,53.6,46.4,77,30.12,10.0,SSE,12.7,-,N/A,,Overcast,160,2013-03-12 19:50:00
12:58 PM,53.2,47.8,82,30.14,10.0,South,16.1,20.7,0.00,,Overcast,170,2013-03-12 19:58:00
1:58 PM,54.1,48.2,80,30.13,10.0,South,12.7,-,0.01,,Overcast,170,2013-03-12 20:58:00
2:53 PM,55.4,48.2,77,30.10,10.0,South,13.8,23.0,N/A,,Mostly Cloudy,170,2013-03-12 21:53:00
2:58 PM,55.0,48.6,79,30.12,10.0,SSE,15.0,-,N/A,,Mostly Cloudy,160,2013-03-12 21:58:00
3:13 PM,55.4,48.2,77,30.10,10.0,SSE,16.1,-,N/A,,Mostly Cloudy,160,2013-03-12 22:13:00
3:23 PM,55.4,48.2,77,30.10,10.0,SSE,17.3,21.9,N/A,,Overcast,160,2013-03-12 22:23:00
3:58 PM,54.7,48.9,81,30.12,10.0,South,11.5,-,N/A,,Overcast,170,2013-03-12 22:58:00
4:03 PM,55.4,48.2,77,30.10,10.0,SSE,13.8,23.0,N/A,,Overcast,160,2013-03-12 23:03:00
4:08 PM,55.4,48.2,77,30.10,10.0,SSE,13.8,23.0,N/A,,Overcast,150,2013-03-12 23:08:00
4:18 PM,53.6,48.2,82,30.11,10.0,SSE,15.0,-,N/A,,Overcast,150,2013-03-12 23:18:00
4:28 PM,53.6,48.2,82,30.11,10.0,SSE,13.8,-,N/A,,Overcast,160,2013-03-12 23:28:00
4:58 PM,53.6,48.0,81,30.13,10.0,SSE,15.0,-,N/A,,Overcast,160,2013-03-12 23:58:00
5:03 PM,53.6,48.2,82,30.11,10.0,SSE,13.8,-,N/A,,Overcast,160,2013-03-13 00:03:00
5:13 PM,53.6,48.2,82,30.11,10.0,SSE,13.8,-,N/A,,Overcast,150,2013-03-13 00:13:00
5:58 PM,54.0,48.0,80,30.13,10.0,South,15.0,20.7,N/A,,Overcast,170,2013-03-13 00:58:00
6:58 PM,53.1,48.4,84,30.13,10.0,South,11.5,-,N/A,,Overcast,170,2013-03-13 01:58:00
7:55 PM,51.8,48.2,88,30.12,10.0,South,10.4,-,N/A,Rain,Light Rain,170,2013-03-13 02:55:00
7:58 PM,52.0,48.2,87,30.14,10.0,South,11.5,-,0.00,Rain,Light Rain,170,2013-03-13 02:58:00
8:05 PM,51.8,48.2,88,30.12,10.0,South,12.7,-,N/A,,Overcast,170,2013-03-13 03:05:00
8:09 PM,51.8,48.2,88,30.13,10.0,SSE,11.5,-,N/A,,Light Drizzle,160,2013-03-13 03:09:00
8:14 PM,51.8,48.2,88,30.13,10.0,South,12.7,-,N/A,,Light Drizzle,170,2013-03-13 03:14:00
8:19 PM,51.8,48.2,88,30.13,10.0,South,10.4,-,N/A,,Overcast,170,2013-03-13 03:19:00
8:25 PM,51.8,48.2,88,30.13,10.0,South,12.7,-,N/A,,Light Drizzle,170,2013-03-13 03:25:00
8:30 PM,51.8,48.2,88,30.13,10.0,South,9.2,-,N/A,,Light Drizzle,170,2013-03-13 03:30:00
8:35 PM,51.8,48.2,88,30.13,10.0,South,11.5,-,N/A,,Light Drizzle,170,2013-03-13 03:35:00
8:38 PM,51.8,48.2,88,30.13,10.0,South,13.8,-,N/A,,Overcast,170,2013-03-13 03:38:00
8:53 PM,51.8,48.2,88,30.13,10.0,SSE,11.5,-,N/A,,Overcast,160,2013-03-13 03:53:00
8:58 PM,51.4,47.8,87,30.14,10.0,SSE,13.8,-,0.01,,Overcast,160,2013-03-13 03:58:00
8:59 PM,51.8,48.2,88,30.13,10.0,SSE,11.5,-,N/A,,Light Drizzle,160,2013-03-13 03:59:00
9:10 PM,51.8,48.2,88,30.13,10.0,SSE,12.7,-,N/A,,Overcast,160,2013-03-13 04:10:00
9:30 PM,51.8,48.2,88,30.13,10.0,SSE,11.5,-,N/A,,Overcast,160,2013-03-13 04:30:00
9:32 PM,51.8,48.2,88,30.13,10.0,SSE,10.4,-,N/A,,Light Drizzle,160,2013-03-13 04:32:00
9:42 PM,51.8,48.2,88,30.13,10.0,SSE,11.5,-,N/A,,Overcast,150,2013-03-13 04:42:00
9:58 PM,50.7,47.7,89,30.14,10.0,SSE,12.7,-,0.02,,Overcast,160,2013-03-13 04:58:00
10:58 PM,50.4,47.3,89,30.14,10.0,SSE,11.5,-,0.01,,Overcast,160,2013-03-13 05:58:00
11:58 PM,50.0,48.0,93,30.16,10.0,SSE,9.2,-,0.01,,Overcast,160,2013-03-13 06:58:00